Weather History for Forest City, IA

Change the Weather History Date:

Sunday, May 18, 2014

  Actual Average Record
Temperature  
Mean Temperature 53 °F -  
Max Temperature 69 °F 73 °F 89 °F (2012)
Min Temperature 37 °F 49 °F 37 °F (2014)
Degree Days  
Heating Degree Days 12    
Growing Degree Days 3 (Base 50)    
Moisture  
Dew Point 35 °F    
Average Humidity 47    
Maximum Humidity 87    
Minimum Humidity 25    
Precipitation  
Precipitation 0.00 in - - ()
Sea Level Pressure  
Sea Level Pressure 30.08 in    
Wind  
Wind Speed 8 mph (SSW)    
Max Wind Speed 20 mph    
Max Gust Speed 29 mph    
Visibility 10 miles    
Events Rain    
Averages and records for this station are not official NWS values.
T = Trace of Precipitation, MM = Missing Value Source: NWS Daily Summary

Daily Weather History Graph

Daily Weather History Graph

Search for Another Location

Airport:

Trip Planner

Search our weather history database for the weather conditions in past years. The results will help you decide how hot, cold, wet, or windy it might be!

Date:

Astronomy

May. 18, 2014 Rise Set
Actual Time 5:47 AM CDT 8:34 PM CDT
Civil Twilight 5:14 AM CDT 9:08 PM CDT
Nautical Twilight 4:32 AM CDT 9:50 PM CDT
Astronomical Twilight 3:44 AM CDT 10:38 PM CDT
Moon No Moon Rise 9:38 AM CDT (5/18)
Length of Visible Light 15h 53m
Length of Day
14h 47m
Waning Gibbous, 81% of the Moon is Illuminated
May 18
Waning Gibbous
May 21
Last Quarter
May 28
New
Jun 5
First Quarter
Jun 12
Full

Hourly Weather History & Observations

Time (CDT) Temp. Windchill Dew Point Humidity Pressure Visibility Wind Dir Wind Speed Gust Speed Precip Events Conditions
12:15 AM 46.4 °F 44.3 °F 35.6 °F 66% 30.08 in 10.0 mi WSW 4.6 mph - N/A   Scattered Clouds
12:35 AM 46.4 °F 44.3 °F 33.8 °F 62% 30.08 in 10.0 mi WSW 4.6 mph - N/A   Scattered Clouds
12:55 AM 46.4 °F 44.3 °F 35.6 °F 66% 30.09 in 10.0 mi WSW 4.6 mph - N/A   Mostly Cloudy
1:15 AM 48.2 °F - 33.8 °F 58% 30.09 in 10.0 mi WSW 5.8 mph - N/A   Scattered Clouds
1:35 AM 46.4 °F 44.3 °F 33.8 °F 62% 30.09 in 10.0 mi WSW 4.6 mph - N/A   Clear
1:55 AM 46.4 °F 43.5 °F 33.8 °F 62% 30.09 in 10.0 mi WSW 5.8 mph - N/A   Clear
2:15 AM 46.4 °F 43.5 °F 33.8 °F 62% 30.09 in 10.0 mi WSW 5.8 mph - N/A   Clear
2:35 AM 44.6 °F 43.1 °F 33.8 °F 66% 30.09 in 10.0 mi SW 3.5 mph - N/A   Clear
2:55 AM 44.6 °F 42.2 °F 33.8 °F 66% 30.10 in 10.0 mi SSW 4.6 mph - N/A   Clear
3:15 AM 44.6 °F - 33.8 °F 66% 30.10 in 10.0 mi Calm Calm - N/A   Clear
3:35 AM 41.0 °F - 33.8 °F 76% 30.11 in 10.0 mi Calm Calm - N/A   Clear
3:55 AM 42.8 °F - 33.8 °F 70% 30.11 in 10.0 mi Calm Calm - N/A   Clear
4:15 AM 41.0 °F - 32.0 °F 70% 30.10 in 10.0 mi Calm Calm - N/A   Clear
4:35 AM 37.4 °F - 32.0 °F 81% 30.11 in 10.0 mi Calm Calm - N/A   Clear
4:55 AM 37.4 °F - 32.0 °F 81% 30.11 in 10.0 mi Calm Calm - N/A   Clear
5:15 AM 37.4 °F 34.9 °F 33.8 °F 87% 30.11 in 10.0 mi South 3.5 mph - N/A   Clear
5:35 AM 37.4 °F 34.9 °F 32.0 °F 81% 30.12 in 10.0 mi South 3.5 mph - N/A   Clear
5:55 AM 39.2 °F 37.0 °F 32.0 °F 75% 30.12 in 10.0 mi SSW 3.5 mph - N/A   Clear
6:15 AM 37.4 °F - 32.0 °F 81% 30.13 in 10.0 mi Calm Calm - N/A   Clear
6:35 AM 39.2 °F - 33.8 °F 81% 30.13 in 10.0 mi Calm Calm - N/A   Clear
6:55 AM 42.8 °F 40.1 °F 33.8 °F 70% 30.13 in 10.0 mi SSW 4.6 mph - N/A   Clear
7:15 AM 46.4 °F 44.3 °F 35.6 °F 66% 30.13 in 10.0 mi SSW 4.6 mph - N/A   Clear
7:35 AM 48.2 °F - 35.6 °F 62% 30.13 in 10.0 mi SSW 4.6 mph - N/A   Clear
7:55 AM 51.8 °F - 35.6 °F 54% 30.14 in 10.0 mi SW 6.9 mph - N/A   Clear
8:15 AM 53.6 °F - 37.4 °F 54% 30.14 in 10.0 mi SW 5.8 mph - N/A   Clear
8:35 AM 55.4 °F - 35.6 °F 47% 30.14 in 10.0 mi WSW 8.1 mph - N/A   Clear
8:55 AM 57.2 °F - 39.2 °F 51% 30.14 in 10.0 mi SW 6.9 mph - N/A   Clear
9:15 AM 59.0 °F - 39.2 °F 48% 30.14 in 10.0 mi WSW 6.9 mph - N/A   Clear
9:35 AM 60.8 °F - 41.0 °F 48% 30.14 in 10.0 mi SW 9.2 mph - N/A   Clear
9:55 AM 60.8 °F - 41.0 °F 48% 30.14 in 10.0 mi SW 11.5 mph - N/A   Clear
10:15 AM 62.6 °F - 41.0 °F 45% 30.14 in 10.0 mi SW 10.4 mph - N/A   Clear
10:35 AM 64.4 °F - 37.4 °F 37% 30.13 in 10.0 mi SSW 10.4 mph 16.1 mph N/A   Clear
10:55 AM 64.4 °F - 35.6 °F 34% 30.13 in 10.0 mi SSW 13.8 mph 18.4 mph N/A   Clear
11:15 AM 64.4 °F - 35.6 °F 34% 30.13 in 10.0 mi SSW 13.8 mph 21.9 mph N/A   Clear
11:35 AM 64.4 °F - 33.8 °F 32% 30.13 in 10.0 mi SW 12.7 mph 20.7 mph N/A   Scattered Clouds
11:55 AM 66.2 °F - 35.6 °F 32% 30.13 in 10.0 mi SSW 11.5 mph 16.1 mph N/A   Scattered Clouds
12:15 PM 66.2 °F - 35.6 °F 32% 30.12 in 10.0 mi SSW 15.0 mph 24.2 mph N/A   Scattered Clouds
12:35 PM 66.2 °F - 33.8 °F 30% 30.11 in 10.0 mi SSW 16.1 mph 26.5 mph N/A   Scattered Clouds
12:55 PM 68.0 °F - 33.8 °F 28% 30.11 in 10.0 mi South 17.3 mph 25.3 mph N/A   Scattered Clouds
1:15 PM 68.0 °F - 33.8 °F 28% 30.10 in 10.0 mi SW 16.1 mph 23.0 mph N/A   Clear
1:35 PM 68.0 °F - 33.8 °F 28% 30.09 in 10.0 mi SSW 12.7 mph 25.3 mph N/A   Clear
1:55 PM 68.0 °F - 33.8 °F 28% 30.08 in 10.0 mi South 16.1 mph 25.3 mph N/A   Clear
2:15 PM 68.0 °F - 32.0 °F 26% 30.08 in 10.0 mi South 11.5 mph 26.5 mph N/A   Clear
2:35 PM 68.0 °F - 33.8 °F 28% 30.07 in 10.0 mi SSW 15.0 mph 23.0 mph N/A   Clear
2:55 PM 69.8 °F - 33.8 °F 27% 30.06 in 10.0 mi SSE 17.3 mph 25.3 mph N/A   Clear
3:15 PM 69.8 °F - 33.8 °F 27% 30.06 in 10.0 mi South 16.1 mph 24.2 mph N/A   Clear
3:35 PM 69.8 °F - 33.8 °F 27% 30.05 in 10.0 mi SSW 15.0 mph 21.9 mph N/A   Clear
3:55 PM 69.8 °F - 33.8 °F 27% 30.04 in 10.0 mi SSE 18.4 mph 24.2 mph N/A   Clear
4:15 PM 69.8 °F - 33.8 °F 27% 30.03 in 10.0 mi South 17.3 mph 24.2 mph N/A   Clear
4:35 PM 69.8 °F - 33.8 °F 27% 30.03 in 10.0 mi South 19.6 mph 26.5 mph N/A   Clear
4:55 PM 69.8 °F - 32.0 °F 25% 30.03 in 10.0 mi South 19.6 mph 26.5 mph N/A   Clear
5:15 PM 69.8 °F - 33.8 °F 27% 30.02 in 10.0 mi South 16.1 mph 26.5 mph N/A   Clear
5:35 PM 68.0 °F - 32.0 °F 26% 30.02 in 10.0 mi South 17.3 mph 25.3 mph N/A   Clear
5:55 PM 68.0 °F - 32.0 °F 26% 30.01 in 10.0 mi South 17.3 mph 28.8 mph N/A   Clear
6:15 PM 68.0 °F - 32.0 °F 26% 30.01 in 10.0 mi SSE 16.1 mph 23.0 mph N/A   Clear
6:35 PM 68.0 °F - 33.8 °F 28% 30.01 in 10.0 mi South 18.4 mph 25.3 mph N/A   Clear
6:55 PM 68.0 °F - 33.8 °F 28% 30.00 in 10.0 mi South 19.6 mph 23.0 mph N/A   Clear
7:15 PM 66.2 °F - 33.8 °F 30% 30.00 in 10.0 mi South 17.3 mph 24.2 mph N/A   Clear
7:35 PM 64.4 °F - 33.8 °F 32% 30.00 in 10.0 mi South 12.7 mph 21.9 mph N/A   Clear
7:55 PM 64.4 °F - 33.8 °F 32% 30.01 in 10.0 mi South 13.8 mph - N/A   Clear
8:15 PM 62.6 °F - 33.8 °F 34% 30.00 in 10.0 mi South 10.4 mph 18.4 mph N/A   Scattered Clouds
8:35 PM 62.6 °F - 35.6 °F 37% 30.00 in 10.0 mi SSE 12.7 mph - N/A   Scattered Clouds
8:55 PM 60.8 °F - 37.4 °F 42% 30.00 in 10.0 mi SSE 9.2 mph - N/A Rain Light Rain
9:15 PM 60.8 °F - 37.4 °F 42% 30.00 in 10.0 mi SSE 9.2 mph - N/A   Overcast
9:35 PM 60.8 °F - 37.4 °F 42% 30.02 in 10.0 mi SSE 6.9 mph - N/A   Overcast
9:55 PM 59.0 °F - 41.0 °F 51% 30.02 in 10.0 mi SSE 9.2 mph - N/A   Overcast
10:15 PM 60.8 °F - 37.4 °F 42% 30.03 in 10.0 mi SSE 9.2 mph - N/A   Overcast
10:35 PM 59.0 °F - 41.0 °F 51% 30.03 in 10.0 mi SSE 9.2 mph - N/A   Overcast
10:55 PM 57.2 °F - 42.8 °F 59% 30.04 in 10.0 mi SE 9.2 mph - N/A Rain Light Rain
11:15 PM 57.2 °F - 42.8 °F 59% 30.04 in 10.0 mi SSE 8.1 mph - N/A   Overcast
11:35 PM 59.0 °F - 41.0 °F 51% 30.03 in 10.0 mi SE 11.5 mph - N/A   Overcast
11:55 PM 59.0 °F - 42.8 °F 55% 30.03 in 10.0 mi SE 9.2 mph - N/A   Overcast